Theta_e
304 304 304 305 307 307 307 307 307 307 306 305 304 305 305 304 301 299 300 301 301 302 301 300 298 297 297 298 299 299 299 299 298 298 298 297 295 293 291 289 289 289 288 287 287 287 287 287 286 286 286 286 286 285 285 285 284 284 284 284 284 283 283 283 283 283 283 283 282 282 282 283 283 283 282 282 282 282 281 282 282 281 280 279 278
303 303 303 304 306 306 306 307 307 306 305 303 303 303 303 301 299 298 298 299 300 301 301 299 296 296 296 296 298 299 299 298 298 297 296 293 291 290 289 289 288 288 287 287 286 286 286 286 286 286 286 285 285 285 284 284 284 284 283 283 283 283 283 283 282 282 282 283 282 282 282 283 282 282 282 282 282 281 281 282 282 280 279 278 278
303 303 303 304 306 306 305 306 307 305 303 302 302 302 301 300 298 297 297 297 298 299 299 298 295 294 294 295 296 297 297 296 295 293 291 290 289 289 289 288 288 288 287 287 286 286 286 286 286 285 285 285 285 284 284 284 283 283 283 283 283 283 283 283 282 282 282 282 282 282 282 282 282 282 282 282 281 281 281 282 281 280 279 278 277
303 303 303 303 305 305 305 306 307 305 302 301 302 302 301 299 297 297 296 296 296 296 296 295 294 292 292 292 293 293 293 292 291 290 289 289 289 289 288 288 288 288 287 287 287 286 286 286 285 285 285 285 284 284 284 283 283 283 283 283 283 283 283 282 282 282 282 282 282 282 282 282 282 282 281 281 281 281 281 280 280 279 278 278 277
303 302 302 303 304 304 304 305 306 305 303 301 302 303 301 299 297 296 296 296 295 295 294 293 292 291 291 291 291 291 290 289 289 289 289 289 289 289 288 287 287 287 287 287 286 286 286 286 285 285 285 284 284 284 284 283 283 283 283 283 282 282 282 282 282 282 282 281 281 282 282 282 282 281 281 280 280 280 280 279 279 279 278 277 277
303 302 302 302 302 303 304 304 305 305 304 303 302 302 301 299 297 296 296 296 295 295 294 293 291 290 289 290 290 290 289 289 289 289 289 288 288 288 288 287 287 287 287 286 286 286 285 285 285 285 284 284 284 284 284 283 283 283 283 282 282 282 281 282 282 282 282 281 281 281 282 282 281 281 280 280 279 279 279 279 279 278 277 277 277
302 301 301 301 301 303 304 305 305 305 305 304 303 301 300 298 297 296 296 295 295 294 293 292 290 289 289 289 289 290 289 289 289 289 289 288 288 288 287 287 286 286 286 286 286 285 285 285 285 285 284 284 284 284 284 283 283 283 283 282 282 281 281 281 282 282 281 280 280 281 281 281 280 280 280 280 279 279 279 279 278 277 277 277 277
302 301 301 301 301 302 303 304 305 304 304 304 302 300 298 297 296 296 295 294 294 294 293 291 290 289 289 289 289 289 289 289 289 289 288 288 288 287 287 286 286 286 286 285 285 285 285 285 285 284 284 284 284 284 284 283 283 283 282 282 282 281 281 281 282 281 280 280 280 280 280 279 280 280 279 279 279 279 279 278 277 277 277 276 276
302 301 300 300 301 301 301 302 303 303 302 302 301 299 298 297 296 295 294 293 293 292 291 290 289 289 288 288 288 288 288 288 289 288 288 288 287 287 286 286 286 286 285 285 284 284 284 284 284 284 284 284 284 284 283 283 283 283 283 282 282 281 281 281 281 281 280 279 280 280 279 279 279 279 279 279 279 279 278 278 277 277 276 276 275
302 300 300 300 300 300 300 300 301 301 300 300 300 299 297 296 296 295 293 292 291 291 290 289 289 289 288 288 288 288 288 288 288 288 289 288 288 287 286 286 286 285 285 284 284 283 283 283 283 283 284 284 283 283 283 283 283 283 282 282 282 282 281 281 281 281 280 279 280 279 279 279 279 279 279 279 279 279 278 277 277 276 275 275 275
301 300 300 300 299 299 299 299 299 299 299 299 298 297 296 295 294 294 293 291 290 290 289 289 289 288 288 287 287 287 287 288 288 288 288 288 288 287 286 286 285 285 285 284 284 283 283 283 283 283 284 283 283 283 283 282 282 282 282 282 282 282 281 281 281 281 280 280 280 279 279 279 279 279 278 278 278 278 278 277 276 275 275 274 274
301 300 300 299 299 299 298 298 297 297 297 298 297 296 295 294 293 293 292 290 289 289 288 288 288 288 287 287 287 287 287 287 288 288 288 288 287 287 287 286 285 285 285 284 284 284 283 283 283 284 284 283 283 283 282 282 281 281 281 281 281 281 281 281 281 280 280 280 279 279 279 279 278 278 278 278 278 278 277 276 276 275 275 274 274
301 301 300 299 298 298 298 297 296 296 296 296 296 295 294 293 293 292 291 290 289 288 288 288 288 287 287 287 286 287 287 287 287 287 287 287 287 287 287 286 286 285 285 284 284 284 284 284 284 284 284 284 283 283 282 282 281 281 280 280 280 280 280 280 280 280 279 279 279 279 279 278 278 278 278 278 278 277 276 276 275 275 274 274 274
301 301 300 299 299 299 298 297 296 296 296 295 295 294 294 294 293 292 291 290 289 288 288 287 287 287 286 286 286 286 286 287 287 287 287 287 287 286 286 286 286 285 285 285 285 285 284 285 285 285 285 284 284 283 282 282 281 281 280 280 280 280 279 279 279 279 279 279 279 279 278 278 278 278 278 277 277 277 276 276 275 275 274 274 274
301 301 300 299 299 299 298 297 296 295 295 295 294 294 294 293 292 291 290 289 289 288 288 287 287 286 286 286 286 286 286 287 287 287 287 286 286 286 286 286 285 285 285 285 285 285 285 286 287 286 285 285 285 284 283 282 281 281 281 280 280 280 280 279 279 279 279 279 279 279 279 278 278 278 277 277 277 277 276 276 275 275 274 274 273
301 300 299 299 299 298 298 297 296 295 295 294 294 293 293 292 292 291 290 289 288 288 287 287 286 286 285 285 285 285 286 286 286 286 286 286 286 285 285 285 285 285 285 285 285 285 287 288 287 286 285 285 285 283 282 282 281 281 280 280 280 280 280 280 279 279 279 279 278 278 278 278 278 278 277 277 277 277 276 276 275 275 274 273 273
301 300 299 299 299 298 298 297 296 296 295 294 293 293 292 292 291 290 289 289 288 287 287 286 286 286 285 285 285 285 285 286 286 286 286 286 285 285 284 284 285 285 285 284 285 287 289 289 288 286 286 285 284 282 282 281 281 280 280 280 279 279 280 280 279 279 279 279 279 279 279 278 278 278 278 278 277 277 277 276 275 275 274 272 272
301 300 299 299 299 298 298 297 297 296 295 294 293 293 292 292 291 290 289 289 288 287 287 286 286 286 286 285 285 285 285 285 285 285 285 285 285 284 284 284 284 284 284 285 287 289 290 289 288 286 286 284 283 281 281 280 280 280 279 279 279 278 279 279 278 278 278 278 278 278 278 278 278 278 278 278 278 278 277 277 276 274 273 272 272
300 300 300 299 299 298 298 297 297 296 295 294 293 293 292 292 291 290 289 289 288 288 287 287 286 285 285 285 285 284 284 284 284 284 284 284 284 284 284 284 283 283 284 286 288 289 290 290 288 286 284 283 281 281 280 280 280 280 279 279 278 278 279 279 278 278 277 277 277 277 276 276 276 277 277 278 278 277 277 277 276 275 274 273 273
301 300 300 299 298 298 297 297 296 296 295 294 294 293 292 292 291 290 289 289 288 288 287 286 285 285 284 284 284 284 284 283 283 284 284 283 283 284 284 284 283 283 286 288 289 289 290 289 287 285 283 281 280 280 280 279 279 279 279 278 278 279 279 278 278 278 277 277 277 277 276 275 275 275 276 276 276 276 276 276 276 275 274 274 273
300 299 299 298 298 297 297 296 296 295 295 294 293 293 292 291 290 289 289 288 287 287 286 285 285 284 284 284 284 283 283 283 283 284 283 283 283 284 284 284 284 285 287 289 289 290 289 288 286 284 282 281 280 280 279 279 279 279 279 279 279 279 279 278 278 278 278 278 278 277 276 276 275 275 275 275 275 276 275 275 275 275 274 273 273
299 298 298 297 297 297 296 296 295 295 294 294 293 292 291 291 290 289 288 287 287 286 286 285 284 284 284 283 283 283 283 283 284 284 283 283 283 283 284 284 285 287 289 289 289 289 288 287 285 283 282 281 280 280 279 279 279 279 279 280 280 279 279 279 278 278 278 278 277 277 276 276 276 276 276 276 276 275 275 275 275 274 274 273 273
298 297 297 297 296 296 296 295 295 294 294 293 293 291 290 289 289 288 287 287 286 285 285 284 284 283 283 283 283 282 283 283 283 283 283 282 282 283 283 284 286 288 289 289 289 289 287 285 284 282 282 281 281 281 280 280 280 280 280 280 280 279 279 279 279 278 278 278 277 276 276 276 276 276 276 276 276 275 275 275 275 274 274 273 272
296 296 296 296 296 295 295 295 294 294 293 293 292 290 289 288 288 287 287 286 286 285 284 284 283 283 282 282 282 282 282 282 282 282 282 282 282 282 283 284 287 288 289 289 288 287 285 284 283 282 282 282 281 281 281 281 281 280 280 280 280 280 280 280 280 279 279 278 277 277 276 276 276 276 276 276 275 275 275 274 274 273 273 272 272
295 296 295 295 295 295 294 294 293 293 292 292 291 289 288 288 287 287 286 286 285 284 284 283 283 282 282 281 281 281 281 281 281 281 282 282 282 283 284 286 287 288 288 287 286 285 284 283 282 282 282 282 281 281 281 281 281 281 281 281 281 281 280 280 280 279 279 279 278 278 277 277 277 276 276 275 275 274 274 273 273 273 272 272 271
294 295 294 294 294 293 293 292 291 291 291 290 290 289 288 288 287 286 285 285 285 284 283 283 283 282 282 282 281 281 281 281 281 281 282 282 283 285 286 286 287 286 286 285 284 283 283 282 282 282 282 281 281 281 280 280 280 280 280 280 280 280 280 279 279 279 279 279 278 278 278 277 277 276 275 275 274 274 273 273 272 272 272 271 271
294 293 293 293 292 292 291 291 290 289 289 289 289 288 288 287 286 285 285 284 284 284 283 283 283 283 282 282 281 281 281 282 282 282 283 283 284 285 285 285 285 284 284 284 283 283 283 282 282 282 281 281 281 281 280 280 280 279 279 279 279 279 278 278 278 277 277 277 277 277 277 276 276 275 275 274 274 273 273 272 272 272 272 271 270
293 293 292 292 291 291 291 290 289 289 288 288 288 287 287 287 286 286 285 285 285 284 283 283 283 283 283 282 282 281 281 282 283 284 284 285 285 285 284 283 283 283 284 284 284 283 283 283 282 282 281 281 281 280 280 279 279 279 278 278 278 278 278 278 277 277 276 276 276 276 276 275 274 274 274 273 273 273 273 272 272 272 271 270 269
292 292 291 291 290 290 289 289 289 288 287 287 287 286 286 286 286 286 285 285 286 285 285 284 284 284 283 283 283 282 282 284 286 286 286 286 286 285 284 283 282 282 282 283 283 283 282 282 282 281 281 281 280 280 279 279 278 278 277 277 277 277 277 277 277 276 276 275 275 275 274 274 273 273 273 272 272 272 272 272 271 271 270 269 268
291 291 290 290 289 289 289 288 288 287 287 286 286 285 285 285 285 285 286 286 286 286 286 286 286 285 285 284 285 285 286 287 287 286 285 284 284 283 283 282 281 281 281 281 282 281 281 281 280 280 280 280 279 279 278 278 278 277 277 277 277 277 277 277 276 276 276 275 275 274 274 274 273 273 272 272 272 272 271 271 271 270 269 269 268
290 289 289 289 289 288 288 287 287 287 286 286 285 285 284 284 284 285 285 285 285 285 285 286 286 286 286 285 285 285 285 285 285 284 283 282 282 281 281 280 280 280 279 280 280 280 279 279 279 279 279 278 278 277 277 277 277 277 277 277 277 277 276 276 275 275 275 275 274 274 273 273 273 273 272 272 271 271 271 270 270 269 269 268 268
289 289 289 289 288 288 288 287 287 286 286 285 285 284 284 283 283 283 284 284 284 284 284 285 285 285 285 284 284 283 283 283 283 283 283 282 281 280 280 280 279 279 279 279 279 278 278 278 278 278 277 277 277 277 277 277 277 277 277 277 276 276 275 275 274 274 274 274 273 273 273 272 272 272 272 271 271 270 270 270 269 269 268 268 267
289 288 288 288 288 287 287 287 286 286 285 284 284 284 283 282 282 281 282 282 282 283 283 283 283 283 283 283 283 283 283 282 282 283 283 282 281 280 280 279 279 278 278 278 278 277 277 277 277 277 277 277 277 277 277 276 276 276 276 276 275 275 274 274 274 273 273 273 273 272 272 272 271 271 271 271 270 270 269 269 269 268 268 267 267
289 288 288 287 287 286 286 286 285 285 284 284 283 283 283 283 282 281 281 280 281 281 281 282 282 282 282 282 282 282 282 282 282 282 282 282 281 280 279 278 278 278 278 278 277 277 277 276 276 276 277 277 277 276 276 275 275 275 275 274 274 274 274 274 273 273 273 273 273 272 272 271 271 270 270 270 270 269 269 269 268 268 267 266 266
288 287 287 287 286 286 285 285 285 285 284 284 284 283 283 283 283 282 281 280 280 280 280 280 281 281 281 281 281 281 281 281 281 281 281 280 280 279 279 278 278 278 278 277 276 276 276 276 276 276 276 276 276 276 275 275 274 274 274 274 274 274 274 274 273 273 272 272 272 272 272 271 271 270 270 270 269 269 268 268 268 267 267 266 266
287 287 286 286 286 286 285 285 285 284 284 284 283 283 283 282 282 281 281 280 280 280 280 280 280 280 280 281 281 281 280 280 280 280 280 280 280 279 279 278 278 278 277 277 276 276 276 276 276 276 276 276 275 275 275 275 274 274 274 274 274 274 274 273 273 272 272 272 271 271 271 270 270 270 269 269 269 268 268 267 267 266 266 265 265
286 286 285 285 285 285 284 284 284 284 283 283 283 283 282 282 282 281 281 280 280 279 279 279 279 279 279 279 279 279 279 279 279 279 279 279 279 279 279 278 278 278 278 277 277 276 276 276 276 276 276 275 275 275 275 275 275 275 275 274 274 274 273 273 273 272 272 272 271 271 270 269 269 269 268 268 268 267 267 267 266 266 265 265 264
285 285 285 284 284 284 284 283 283 283 283 283 283 282 282 282 281 281 280 280 280 279 278 279 279 279 279 279 279 278 278 278 278 278 278 279 279 279 278 278 278 278 278 278 277 277 277 276 276 276 276 276 275 275 275 275 275 275 274 274 274 273 273 273 272 272 272 271 271 270 269 269 268 268 267 267 267 267 266 266 265 265 264 264 264
284 284 284 283 283 283 283 283 283 283 283 282 282 282 282 281 281 281 280 280 279 279 278 278 278 278 278 278 278 278 278 278 278 278 278 278 278 278 278 277 277 277 277 277 277 277 277 277 276 276 276 276 275 275 275 275 274 274 274 274 273 273 273 272 272 272 271 270 270 269 269 268 268 267 267 266 266 266 266 265 265 264 264 263 263
283 283 283 283 283 283 283 283 283 282 282 282 282 282 281 281 281 280 280 279 279 278 278 277 277 277 278 278 278 278 278 278 278 278 277 277 277 277 277 277 277 277 277 277 277 277 277 276 276 276 275 275 275 275 274 274 274 273 273 273 273 272 272 271 271 271 270 269 269 268 268 267 267 266 266 266 265 265 265 264 264 263 263 263 262
283 283 282 282 283 283 283 283 283 283 282 282 282 281 281 281 281 280 280 279 279 278 278 277 277 277 277 277 278 278 278 278 278 277 277 277 277 277 276 276 277 277 276 276 276 276 276 276 275 275 275 274 274 274 274 273 273 273 272 272 272 271 271 270 270 269 269 268 267 267 266 266 266 265 265 265 265 264 264 264 263 263 263 262 262
283 284 283 283 284 285 285 284 283 283 283 282 282 282 281 281 280 280 280 279 278 278 277 276 276 276 276 277 277 277 277 277 277 277 277 277 277 276 276 276 276 276 276 276 276 275 275 275 275 274 274 274 274 273 273 273 272 272 272 271 271 270 270 269 268 268 267 267 266 266 266 265 265 265 264 264 264 264 263 263 263 262 262 262 261
285 285 286 285 285 285 285 285 284 283 282 282 281 281 280 280 280 279 279 278 277 277 277 276 276 276 276 276 276 276 276 276 276 276 276 276 276 276 276 276 275 275 275 275 275 274 274 274 274 273 273 273 272 272 272 272 271 271 271 270 269 269 268 267 267 266 266 266 265 265 265 265 264 264 264 264 263 263 263 262 262 262 262 261 261
286 286 286 286 285 285 284 284 283 282 281 280 280 279 279 278 278 278 277 277 277 276 276 276 275 275 275 275 275 276 276 276 276 276 275 275 275 275 275 275 274 274 274 273 273 273 272 272 272 272 272 271 271 270 270 270 270 270 269 268 268 267 267 267 266 266 265 265 265 264 264 264 264 264 263 263 263 262 262 262 262 261 261 261 260
287 287 286 285 285 283 282 282 281 280 280 279 278 278 277 277 277 277 277 276 276 275 275 275 275 275 275 275 274 274 275 275 274 274 274 274 274 274 273 273 273 273 272 272 272 271 271 271 271 270 270 270 270 270 269 269 269 268 267 267 267 267 266 266 266 265 265 264 264 264 264 264 263 263 263 262 262 262 261 261 261 260 260 260 260
286 286 285 285 284 282 281 280 280 279 278 278 278 277 276 276 276 276 276 276 275 275 275 274 274 274 274 274 274 273 273 273 273 273 273 273 273 273 272 272 272 272 272 271 271 271 270 270 269 269 269 269 269 268 268 267 267 267 266 266 266 266 266 265 265 265 265 264 264 263 263 263 263 263 262 262 261 261 261 260 260 260 260 259 259
283 283 283 282 281 280 279 278 277 277 276 276 276 276 275 275 274 274 274 274 274 274 273 273 273 273 273 272 272 272 272 272 271 271 271 271 271 271 271 271 271 271 271 270 270 269 269 269 268 268 268 268 267 267 267 266 266 266 266 266 266 265 265 265 265 265 264 264 263 263 263 263 262 262 262 261 261 260 260 260 260 259 259 259 259
280 280 279 278 278 277 276 276 275 275 274 274 274 274 274 273 273 273 273 273 272 272 272 272 272 271 271 271 271 271 271 270 270 270 270 270 270 271 271 270 270 270 270 269 269 269 268 268 267 267 267 267 266 266 266 266 266 265 265 265 265 265 265 264 264 264 264 263 263 263 262 262 262 261 261 261 260 260 260 260 259 259 259 258 258
277 277 277 276 276 276 275 274 274 274 273 273 273 272 272 272 272 271 271 271 271 271 271 271 270 270 270 270 270 270 270 270 270 270 270 270 270 270 270 270 270 269 269 269 268 268 267 267 267 266 266 266 266 266 265 265 265 265 265 265 265 264 264 264 264 263 263 263 263 262 262 262 262 261 260 260 260 260 259 259 259 259 258 258 258
275 275 275 275 275 274 274 273 273 273 272 272 272 271 271 271 270 270 270 270 270 270 270 270 270 270 269 269 269 270 270 270 270 270 270 270 270 270 269 269 269 268 268 268 267 267 267 266 266 266 266 266 265 265 265 265 265 265 265 264 264 264 264 264 263 263 263 262 262 262 262 261 261 261 260 260 259 259 259 259 259 258 258 258 258
274 274 274 274 273 273 273 272 272 272 271 271 271 271 270 270 270 270 270 269 269 269 269 269 269 269 269 269 269 269 270 270 270 270 270 269 269 269 269 268 268 267 267 267 266 266 266 265 265 265 265 265 265 265 265 265 264 264 264 264 263 263 263 263 263 263 262 262 262 262 261 261 261 261 260 260 259 259 259 259 258 258 258 257 257
Wind_Speed
31 31 30 30 30 30 30 30 30 30 31 31 30 30 31 32 32 32 33 33 34 35 35 35 35 35 35 34 34 33 33 32 32 32 31 31 30 30 29 29 28 28 27 26 25 23 22 22 20 19 17 16 15 14 13 11 11 10 10 10 10 10 10 11 10 9 7 7 8 9 11 13 14 15 16 17 19 20 20 20 20 21 22 23 21
32 32 31 31 32 31 31 31 30 31 31 31 31 30 31 33 32 32 33 34 34 35 35 35 35 35 35 35 34 33 33 33 33 32 32 32 31 31 30 30 30 29 28 27 26 24 23 22 21 20 18 17 16 14 13 12 12 11 11 11 11 11 11 11 11 10 9 8 8 10 11 13 14 15 16 18 20 20 20 21 20 21 22 22 21
31 32 32 32 33 32 32 32 32 32 32 32 32 31 32 33 33 33 33 33 34 35 35 35 35 36 35 35 34 33 33 33 33 33 33 33 32 32 31 32 31 30 30 28 27 26 25 23 22 21 20 18 16 15 14 13 12 12 12 12 12 12 12 11 11 10 9 9 9 10 11 13 15 16 17 19 19 20 21 21 20 21 22 21 19
30 32 33 33 33 33 34 33 33 33 33 34 33 33 33 33 33 33 33 33 34 34 34 35 36 36 36 36 35 34 34 35 34 34 34 33 33 33 33 32 32 31 30 29 29 28 27 25 23 22 21 19 17 16 15 14 14 13 13 13 13 12 12 11 10 9 9 9 9 10 12 13 15 16 17 18 19 19 20 20 21 22 21 18 18
31 32 33 34 34 35 35 35 35 35 34 34 34 34 34 34 34 34 34 34 34 34 35 35 37 37 38 37 37 36 36 36 36 35 34 33 33 33 33 33 32 30 30 30 29 28 27 26 24 23 21 19 18 17 16 15 15 15 15 14 14 14 13 12 11 10 10 11 12 13 13 14 16 16 16 17 18 19 20 20 21 22 20 16 15
31 32 34 35 36 36 36 37 37 37 36 35 34 35 35 35 34 34 34 35 35 35 36 37 38 38 38 38 38 38 38 38 37 36 35 34 33 32 33 33 32 31 30 30 29 28 27 25 24 23 22 20 19 18 17 17 17 17 16 16 15 15 15 13 12 11 12 13 13 14 15 15 16 16 15 15 17 19 20 21 21 18 16 16 19
31 33 34 35 37 38 39 39 38 38 37 36 34 35 35 35 34 34 35 35 36 36 37 38 38 39 39 39 39 39 39 39 38 37 37 36 34 33 33 33 32 31 30 30 29 28 26 25 24 23 22 21 19 17 17 18 18 18 17 17 16 16 16 14 13 12 13 13 14 15 16 15 15 15 15 15 15 17 18 20 21 18 17 20 22
32 33 34 36 38 40 40 40 39 38 37 35 34 34 34 34 35 34 35 36 37 37 38 38 38 38 39 39 39 40 40 40 39 39 38 36 35 35 34 34 32 31 30 30 29 28 26 25 24 23 21 19 18 17 18 19 19 19 18 17 17 17 17 15 14 14 14 14 15 16 16 16 15 16 16 14 15 16 15 16 20 22 22 21 20
33 33 34 37 40 39 39 39 39 38 37 36 36 35 34 34 35 35 35 36 37 37 37 38 39 39 39 39 39 40 41 41 41 40 39 38 37 36 35 34 33 32 32 31 29 28 27 26 24 22 19 19 18 19 19 20 20 20 19 19 19 19 18 16 15 15 14 15 17 17 16 17 17 16 16 14 14 16 16 16 20 22 22 22 22
33 33 35 38 38 36 36 37 38 38 38 38 37 36 35 35 35 35 36 36 36 37 37 38 39 40 40 39 39 39 40 41 41 41 40 39 38 37 36 35 34 33 33 31 30 28 27 26 23 21 20 20 20 20 21 21 21 20 19 19 20 21 20 18 18 17 16 17 19 18 17 18 18 16 16 15 14 16 17 18 19 20 20 23 25
34 35 37 37 34 34 36 37 37 38 38 38 38 37 36 36 36 36 36 36 36 37 37 38 39 40 40 39 39 40 41 41 40 40 40 39 38 37 36 35 34 34 33 32 31 29 27 25 23 22 21 21 21 21 22 23 22 20 19 20 21 21 21 20 19 18 18 19 20 18 18 20 20 16 15 15 15 16 18 16 16 18 19 19 21
35 36 36 35 33 35 37 37 37 38 38 38 38 37 36 35 36 36 36 36 36 36 38 39 40 40 39 40 40 40 41 41 40 40 40 39 37 36 36 36 35 34 33 32 31 28 26 25 24 23 23 23 22 23 24 24 23 22 21 21 22 22 22 21 20 20 19 20 21 20 20 21 20 17 15 15 16 17 17 16 16 19 20 18 18
35 35 35 34 34 35 36 36 37 37 38 38 37 36 35 36 36 37 36 36 36 37 38 39 39 40 40 40 40 40 40 40 40 40 39 38 37 36 36 35 35 34 34 32 29 26 25 25 24 24 24 24 24 25 25 25 25 24 23 23 24 24 23 22 22 21 20 21 22 23 23 22 20 18 16 16 17 17 16 17 17 19 20 19 19
34 35 35 35 35 35 35 36 37 37 37 36 35 35 36 37 37 37 36 36 37 38 38 38 38 39 40 40 40 40 40 40 40 40 39 38 37 36 35 34 34 34 33 30 28 26 25 24 23 24 25 25 26 27 28 27 26 25 25 25 26 26 25 25 24 23 22 22 24 25 24 21 20 20 18 16 18 19 18 19 20 20 20 20 20
34 35 35 35 35 36 36 36 36 36 36 35 35 36 37 37 36 36 36 36 37 38 38 38 39 39 39 40 40 40 41 41 40 40 39 38 37 36 35 34 34 32 30 28 27 25 23 22 22 24 25 27 29 30 29 28 26 25 25 26 27 26 26 26 25 24 24 23 24 24 23 21 21 20 18 17 19 20 20 21 21 20 19 19 21
34 34 33 33 34 35 35 35 34 35 35 36 37 37 37 37 36 35 35 35 36 36 37 37 37 37 37 38 39 40 41 41 41 40 40 38 37 37 36 34 32 30 29 28 26 24 22 22 23 25 27 29 30 30 29 26 25 25 25 26 25 25 25 25 23 23 23 23 23 23 22 21 19 17 16 16 18 20 21 21 21 19 17 18 22
34 33 32 32 34 34 35 35 35 35 36 37 38 38 37 36 35 35 35 34 35 35 35 35 36 37 37 38 39 40 41 42 42 41 40 39 39 38 36 32 31 30 29 27 25 23 22 22 23 26 28 30 31 30 28 26 25 25 25 25 25 25 25 24 23 22 22 20 20 19 19 18 17 17 16 16 17 19 20 20 19 17 15 15 18
33 32 32 34 34 34 36 37 37 37 37 38 38 37 36 36 35 35 36 35 35 35 35 34 35 37 39 40 41 41 41 41 41 40 40 40 40 38 36 33 32 30 29 26 24 22 21 21 24 28 30 31 31 29 27 26 25 25 25 25 25 26 26 25 24 24 22 22 21 21 20 20 19 19 19 18 18 21 22 21 20 16 15 15 16
32 32 33 33 33 34 35 37 38 38 38 38 37 36 35 35 35 34 35 35 34 34 34 34 35 36 38 40 40 39 39 38 37 36 37 39 39 37 36 34 32 30 28 26 23 21 21 23 26 28 30 31 30 28 27 26 26 26 25 24 26 27 27 25 24 23 23 23 23 23 22 21 20 20 21 21 22 24 25 24 23 20 19 19 19
30 30 31 30 31 33 34 36 37 37 37 36 36 35 35 34 33 33 33 33 33 33 33 34 34 34 35 36 37 37 37 35 34 33 34 35 36 36 35 34 33 32 28 24 22 21 23 25 27 29 30 30 30 28 26 25 25 25 25 25 27 27 25 23 22 21 20 20 19 19 19 19 19 20 21 22 24 26 26 25 25 24 23 22 21
26 27 27 28 29 31 32 34 35 36 36 35 34 34 34 33 33 33 33 32 32 32 32 32 32 32 33 34 34 35 35 34 33 33 34 35 36 36 35 35 34 31 26 23 22 23 25 27 28 29 30 30 29 28 27 25 25 25 25 25 25 24 22 21 19 18 17 17 17 17 17 17 18 19 20 21 23 25 27 27 26 26 24 22 20
23 23 24 26 27 28 30 32 32 33 32 32 31 31 31 32 32 32 32 31 29 29 29 29 29 28 29 30 31 32 32 31 32 33 34 35 36 36 35 34 32 27 23 23 24 25 27 28 28 28 28 28 27 27 26 24 23 23 24 23 21 19 19 18 17 16 16 17 17 17 18 18 19 20 20 21 23 25 27 28 26 25 24 22 20
20 20 22 24 25 26 27 28 30 30 30 31 31 30 30 30 30 30 29 28 27 26 26 27 26 25 25 26 28 29 30 30 31 31 32 33 33 33 33 31 28 25 24 25 26 27 27 27 26 26 25 24 24 23 21 20 20 20 20 18 17 16 15 16 17 18 18 18 18 19 20 20 21 21 22 23 24 25 27 27 26 24 22 21 20
17 18 20 21 22 24 25 26 28 29 30 30 30 29 28 28 28 27 28 27 25 24 24 24 24 23 22 23 24 26 28 29 29 29 29 30 30 30 30 28 26 25 26 26 27 26 25 24 24 23 22 21 19 18 17 17 17 17 17 16 16 15 15 17 18 18 19 19 19 20 20 21 21 22 23 23 24 24 24 24 23 21 20 20 20
15 17 18 19 20 21 23 25 26 28 29 29 29 28 28 27 27 26 26 26 25 24 23 23 23 22 22 22 23 24 26 27 28 28 29 30 29 29 28 27 27 27 27 26 25 24 23 22 21 20 19 17 16 15 15 16 16 16 16 16 16 16 17 18 18 17 18 20 21 21 22 22 22 22 22 22 21 21 21 21 20 19 19 20 20
15 15 17 18 18 20 21 23 24 25 26 28 28 28 29 29 27 26 25 25 24 23 22 22 22 21 21 22 23 25 26 27 29 30 30 30 30 29 28 27 26 26 25 24 23 22 21 21 19 18 17 16 16 16 16 15 15 15 15 15 17 18 19 19 18 18 19 20 20 21 21 21 21 21 20 20 20 20 20 20 20 19 19 20 21
15 16 17 17 18 20 21 22 22 23 24 25 25 26 27 27 26 25 24 24 22 22 22 23 23 23 22 22 23 24 26 27 29 30 30 31 31 30 28 26 25 24 23 22 21 21 21 20 19 18 17 15 15 15 15 15 15 15 14 15 16 18 19 19 18 18 19 19 19 18 18 18 18 18 18 19 19 20 20 20 20 20 19 19 20
16 17 17 18 19 20 21 22 23 23 23 23 23 24 24 25 25 25 26 27 26 25 25 25 25 24 23 22 22 22 24 27 29 31 32 32 31 31 30 28 27 26 26 25 22 20 19 19 18 16 15 15 15 16 16 16 16 15 15 15 16 17 17 18 18 17 17 17 17 17 17 17 17 17 17 18 19 20 20 21 21 20 19 17 19
17 17 18 19 20 21 21 22 23 23 22 20 20 20 22 24 24 24 25 26 27 26 25 25 25 25 25 24 24 23 24 26 28 28 28 28 29 29 30 30 30 29 29 28 25 22 20 20 20 19 18 18 18 18 18 18 17 16 16 16 16 17 17 18 19 18 17 16 16 17 17 17 17 17 18 19 20 21 21 21 20 19 18 17 20
17 18 19 20 21 21 22 22 22 22 22 20 19 17 17 19 22 22 21 22 23 23 23 23 23 24 24 24 24 23 22 22 22 23 24 24 25 25 26 27 29 30 29 27 26 24 23 22 22 22 22 21 20 20 19 19 18 17 17 17 17 18 17 18 18 18 17 17 17 17 18 18 18 18 18 20 21 21 20 20 18 18 18 19 21
19 19 20 21 22 23 23 23 22 22 22 22 22 19 16 14 15 17 18 18 19 20 20 19 19 20 21 22 22 21 18 17 16 17 19 20 21 22 22 22 24 26 27 26 26 25 25 24 24 23 22 22 21 20 19 19 19 18 18 18 18 17 17 17 17 17 17 18 18 18 18 18 18 18 19 20 20 20 19 18 17 18 19 20 22
20 21 21 22 23 23 24 24 24 24 24 24 24 23 21 18 14 12 13 15 16 16 16 15 15 16 17 19 19 18 17 16 14 13 14 17 18 19 20 19 20 21 22 24 25 26 26 26 25 23 23 22 21 20 19 19 18 18 17 17 17 17 16 15 15 15 16 16 17 17 17 17 18 18 19 19 19 19 19 18 18 19 19 20 21
21 21 22 23 23 24 25 26 26 26 26 26 25 24 23 22 20 17 13 13 13 13 14 14 13 14 16 17 17 16 15 15 14 13 14 16 18 19 19 19 19 19 21 24 26 26 25 25 24 23 23 22 21 20 19 18 18 17 16 16 17 16 14 12 10 11 12 12 12 13 14 15 16 17 18 18 19 19 19 19 19 19 19 20 20
21 21 23 24 25 25 26 26 26 26 25 25 24 23 22 23 23 23 20 17 15 13 13 13 14 14 15 16 16 15 14 14 15 15 16 17 19 20 19 18 17 18 21 24 25 25 24 23 23 22 22 22 20 19 18 17 17 16 15 15 14 13 11 10 10 10 10 10 11 12 12 13 14 15 17 18 18 18 19 19 19 19 18 19 20
19 20 22 23 24 24 24 25 25 24 25 25 25 24 23 24 24 24 23 21 19 17 15 14 13 14 15 15 15 15 14 14 15 16 17 19 20 20 20 20 20 20 21 21 22 22 22 22 22 22 22 21 19 18 16 16 15 15 13 13 12 11 11 11 11 11 10 11 12 12 13 13 14 15 16 17 17 18 19 19 18 18 18 18 19
19 20 21 23 23 23 23 23 24 24 24 24 24 23 23 23 23 22 20 20 20 20 19 17 14 12 13 14 14 14 14 15 15 16 17 18 20 22 23 24 24 24 22 21 20 20 20 20 20 21 21 19 17 16 15 15 14 13 12 12 12 12 12 12 12 12 12 12 13 13 13 14 15 16 16 17 18 19 19 19 18 17 17 18 19
19 20 22 22 22 22 22 21 21 22 21 21 21 21 20 21 21 21 20 20 20 20 20 20 18 15 13 13 14 14 14 14 14 15 16 17 19 21 23 24 24 24 23 22 21 20 19 19 20 20 20 18 16 15 15 15 14 14 13 13 13 12 12 12 12 13 13 13 14 14 15 16 17 17 17 18 18 18 18 18 17 17 18 19 19
19 20 21 22 21 21 21 21 20 20 20 20 20 20 20 20 20 20 20 20 21 20 21 21 21 19 19 18 16 16 15 15 15 16 17 18 20 22 22 22 22 23 23 22 21 20 20 20 20 19 19 18 17 17 17 16 16 15 14 14 14 13 13 14 14 14 14 15 15 16 17 17 17 17 17 17 18 18 17 17 17 18 19 18 18
17 18 20 20 20 21 22 22 21 21 21 21 21 21 20 20 20 20 20 20 20 20 21 22 21 20 21 22 21 20 19 19 20 20 20 21 23 23 22 20 21 22 22 21 21 20 20 20 20 19 18 18 18 18 17 17 16 16 16 15 15 16 16 16 16 16 16 16 16 16 16 16 15 15 15 15 16 17 17 18 18 18 18 18 19
18 19 19 19 20 20 20 21 21 21 22 22 22 22 21 21 21 21 21 20 20 20 21 22 22 22 23 25 25 25 24 23 23 23 23 23 23 23 22 21 20 20 21 21 21 20 19 19 19 18 18 18 17 17 17 16 16 16 16 16 16 16 17 16 16 16 16 16 16 15 15 14 14 13 14 15 16 17 18 18 18 17 17 18 18
19 20 20 20 19 19 18 18 19 20 20 21 21 22 22 22 21 21 21 21 21 21 22 22 22 22 23 25 25 26 25 24 23 24 24 24 24 24 23 22 21 21 20 20 20 21 20 19 18 18 18 17 17 17 17 17 16 16 16 16 16 17 17 17 17 17 16 16 15 15 14 14 14 15 16 17 17 17 17 17 17 16 16 17 17
19 20 20 19 18 17 17 17 17 17 18 19 19 20 21 21 21 22 22 22 22 21 21 21 21 21 22 23 23 23 23 23 23 24 24 24 24 24 23 22 22 21 20 20 20 20 20 20 19 19 19 19 18 18 18 17 17 17 17 18 18 18 18 17 17 16 16 15 15 15 15 15 16 16 17 17 17 17 16 16 16 16 16 17 17
18 17 17 16 15 15 15 15 16 16 17 18 18 18 19 20 20 21 21 21 21 21 21 22 21 20 22 22 20 20 21 21 21 22 23 23 24 24 23 22 22 21 21 20 20 20 20 20 19 19 19 19 19 19 19 19 19 19 19 18 18 18 17 16 16 16 15 15 15 15 15 15 15 16 16 16 16 16 16 15 16 16 16 17 16
15 14 13 13 13 13 13 14 15 15 16 16 16 17 17 18 18 19 19 19 20 20 21 22 22 21 22 23 21 20 21 22 21 21 22 22 22 23 23 22 22 21 21 20 20 19 19 19 19 20 20 20 20 20 20 19 19 18 18 17 17 16 16 15 15 14 14 14 14 15 14 14 15 15 16 16 15 15 15 15 15 15 15 16 16
13 13 13 13 14 14 14 14 15 15 16 16 16 16 17 17 18 18 19 19 20 20 20 21 21 22 24 25 24 22 22 22 21 20 21 21 21 22 22 21 21 21 20 20 20 19 19 20 20 21 21 20 19 19 18 18 17 17 16 16 15 15 15 14 13 14 14 15 15 15 14 14 15 15 15 15 14 14 14 14 14 14 15 15 16
14 14 14 15 15 15 15 15 16 16 16 17 17 16 17 17 18 18 18 19 19 20 20 20 21 22 24 25 25 23 22 22 22 21 20 20 20 20 20 19 19 18 18 18 18 18 18 18 18 18 18 17 17 17 17 17 16 16 15 15 15 15 14 14 14 14 14 15 15 14 14 15 15 15 15 15 14 13 13 13 13 14 14 14 15
13 13 14 14 15 15 15 15 15 15 15 16 16 16 16 16 16 16 17 17 18 19 19 19 20 22 23 23 23 22 21 21 21 20 20 19 19 18 17 17 16 16 16 16 16 16 16 16 16 16 16 16 16 16 16 16 16 15 15 15 15 15 15 15 14 14 14 14 14 15 15 15 15 15 15 15 14 13 13 13 14 14 15 15 15
10 11 12 12 12 13 13 13 13 14 14 13 14 14 14 14 14 15 15 16 16 17 17 17 18 20 20 20 21 20 20 19 18 17 17 16 15 15 14 14 14 14 15 15 15 16 16 16 16 16 16 16 16 16 16 16 16 15 15 15 15 15 15 15 15 15 14 15 15 15 15 16 16 16 16 16 15 14 14 14 15 15 15 15 15
8 9 9 10 10 10 10 11 12 12 12 12 12 12 12 13 13 13 14 14 15 15 15 16 17 18 18 18 19 19 18 17 15 14 13 13 13 13 13 14 14 15 16 16 16 16 16 16 16 16 16 16 16 16 16 16 16 15 15 15 15 15 15 15 15 15 15 15 16 16 16 16 17 16 17 16 15 15 15 15 15 15 15 15 15
7 7 8 8 9 9 9 9 10 11 11 11 12 12 12 12 12 13 13 14 14 14 14 15 16 16 16 16 16 15 14 13 12 11 11 12 12 13 14 14 15 16 16 16 16 16 16 16 16 16 17 17 17 16 16 16 16 16 15 15 15 16 15 16 16 16 16 16 16 16 17 17 17 17 17 16 16 16 16 16 15 16 16 16 16
5 6 7 7 7 8 9 9 10 10 10 11 11 11 11 12 12 12 12 13 13 13 13 14 14 14 14 13 12 11 10 10 10 11 11 12 13 14 14 15 16 16 16 17 17 16 16 16 16 16 17 17 17 17 17 17 16 16 16 16 16 16 16 16 16 16 16 16 17 17 18 18 18 18 18 17 16 16 16 16 16 16 16 15 15
Wind_Direction
208 209 210 212 215 216 218 221 222 221 219 218 219 219 217 212 209 211 213 214 214 214 214 212 210 208 207 206 204 202 200 199 198 199 198 197 197 196 195 193 192 189 185 183 183 185 187 185 183 183 182 182 184 185 188 191 194 196 199 204 207 207 204 203 206 208 221 246 258 273 288 299 310 316 319 322 326 327 327 329 330 331 331 330 327
207 208 208 210 214 216 217 219 221 220 217 217 217 218 216 211 210 213 215 216 216 216 215 213 211 209 207 206 204 202 201 199 198 198 197 196 194 194 194 192 190 187 184 183 183 185 188 188 185 184 185 189 190 191 194 199 202 204 207 211 214 215 213 212 211 214 226 243 255 269 285 297 305 309 313 317 321 322 323 325 327 329 329 326 322
209 208 208 210 213 215 217 219 220 219 216 215 215 216 215 212 212 215 216 217 216 216 216 215 211 209 207 206 204 202 200 198 197 198 198 197 194 192 193 193 191 188 186 185 186 188 190 190 189 188 189 191 193 195 198 205 209 211 214 218 220 222 221 218 215 219 233 248 258 266 277 289 296 301 306 312 317 320 320 322 325 326 326 321 317
211 209 209 210 212 213 215 217 219 219 217 216 216 216 216 214 215 217 218 218 217 216 216 215 212 209 206 204 202 200 199 197 197 198 199 199 197 194 193 193 193 192 190 190 191 192 193 192 191 191 193 194 197 200 202 208 214 216 217 221 224 227 227 224 224 230 238 248 258 266 276 287 293 297 304 310 315 317 316 317 320 321 320 317 315
212 210 209 210 210 212 214 215 217 219 218 218 219 219 218 216 216 217 219 219 218 216 215 213 211 208 206 204 202 200 199 198 197 198 199 200 199 197 195 195 195 194 194 195 196 195 196 196 194 194 196 198 200 204 208 213 217 219 221 223 224 228 231 230 232 237 244 250 259 269 279 285 290 295 303 309 313 313 311 310 314 316 316 314 310
213 211 210 209 210 211 212 214 215 218 219 220 221 220 218 217 217 218 219 219 218 217 215 213 211 208 206 205 203 202 201 200 199 199 200 199 198 198 197 197 196 195 196 196 198 198 199 200 199 198 201 203 205 209 214 217 220 222 224 225 225 227 230 232 236 242 249 253 260 271 279 283 288 294 302 306 306 305 305 307 310 310 308 305 304
214 212 211 211 211 211 212 214 215 217 219 221 220 219 217 216 217 218 219 219 218 216 214 212 210 208 207 205 204 203 202 200 200 201 201 200 198 198 198 197 196 195 196 198 199 200 202 204 204 203 205 208 210 215 219 221 224 226 226 226 227 227 228 233 238 244 249 253 260 269 276 280 284 290 296 300 298 297 302 305 305 302 301 302 304
215 213 211 212 214 214 213 213 215 216 218 219 218 217 215 215 217 218 218 218 217 216 214 212 209 207 207 206 205 204 203 201 200 201 201 200 199 199 198 197 196 195 197 199 200 201 203 207 208 207 207 211 216 222 226 228 228 227 227 227 227 228 230 234 238 242 246 252 260 268 272 275 279 284 290 293 292 294 295 292 292 297 302 302 300
216 214 213 215 217 216 214 213 213 215 216 216 215 214 214 214 216 218 218 218 216 216 214 212 209 207 207 206 205 204 203 202 201 202 202 201 200 200 199 198 197 197 197 198 199 200 203 207 209 209 208 214 221 226 231 233 233 230 228 228 229 229 232 234 237 240 241 246 256 261 262 267 274 278 282 286 288 288 285 282 287 294 297 295 295
217 215 217 219 219 217 216 214 213 212 212 212 212 212 212 212 214 216 217 216 215 214 212 211 210 208 206 205 204 204 204 204 204 204 205 205 203 201 199 199 199 199 199 198 198 199 201 205 209 212 214 217 222 228 233 236 237 235 233 234 235 234 234 235 236 238 238 242 250 254 253 261 269 270 275 284 285 279 279 283 286 289 292 295 300
217 218 221 222 219 218 218 215 213 211 211 210 210 209 210 210 211 214 215 214 213 212 210 210 210 208 206 205 205 205 205 206 206 207 208 208 206 202 200 199 199 200 201 200 200 199 200 204 210 216 220 222 224 229 234 236 237 237 236 238 240 241 240 240 239 239 238 241 248 250 252 260 266 268 276 282 278 273 277 280 279 285 291 296 301
218 221 223 223 219 218 218 216 214 212 211 210 209 209 208 208 210 212 213 212 211 210 210 210 209 208 207 207 206 206 207 208 209 209 209 208 207 205 203 201 200 201 203 203 203 201 202 206 212 219 226 229 229 232 235 237 238 239 239 240 242 245 246 246 246 244 242 244 250 251 253 259 264 270 277 277 273 271 272 271 273 281 286 286 290
220 222 224 223 220 220 218 216 215 214 212 211 209 208 207 208 210 211 211 211 210 209 210 209 208 207 207 207 207 208 209 209 210 210 210 209 209 208 206 203 203 203 203 204 204 204 206 210 216 223 229 233 236 238 239 239 239 240 241 242 244 246 248 250 252 251 249 250 252 255 258 261 265 272 277 274 271 268 265 268 275 280 280 280 284
221 223 224 223 221 220 218 216 216 215 214 212 209 207 208 210 211 211 210 210 208 209 210 209 208 208 207 207 207 208 210 211 212 211 211 210 209 208 207 206 206 205 205 206 207 208 211 216 224 230 234 238 241 242 242 241 241 242 243 244 246 248 249 250 252 254 256 257 258 261 264 263 266 274 277 271 267 266 266 272 278 279 278 279 283
221 223 224 222 221 219 217 216 216 215 214 212 210 209 209 210 210 210 209 209 209 209 209 210 210 209 208 208 207 208 211 212 213 212 211 210 208 207 208 207 206 205 206 209 210 212 217 226 234 238 240 244 247 246 245 245 245 245 246 247 249 251 253 253 254 255 260 263 265 266 268 269 273 278 276 267 264 267 271 275 278 277 277 281 286
223 224 223 222 221 220 217 216 215 214 214 212 211 210 210 210 209 208 208 209 210 210 210 210 210 208 208 208 207 208 211 212 213 212 211 209 207 206 207 206 204 205 207 208 210 215 224 234 238 241 244 248 250 249 248 248 248 249 248 249 252 255 257 260 261 261 265 268 268 269 272 276 278 276 271 266 266 270 271 270 269 268 271 282 291
226 225 224 224 223 221 219 216 215 214 213 211 211 210 210 209 209 207 207 207 208 210 210 210 210 209 209 209 208 209 211 212 212 212 210 207 205 204 203 203 204 206 207 207 212 221 230 237 240 243 247 249 250 250 249 250 250 250 250 251 253 255 259 263 264 264 266 266 264 264 267 268 266 263 262 262 268 271 266 259 259 259 263 277 293
228 226 226 227 225 222 220 217 216 214 213 212 211 210 208 208 208 207 206 207 207 209 209 210 211 212 212 212 211 211 211 211 212 211 208 206 205 203 201 202 204 205 205 208 218 228 235 241 244 246 248 249 249 249 248 250 251 251 251 252 252 253 258 263 263 263 263 261 260 261 260 258 257 258 258 257 261 265 262 261 262 260 263 276 293
231 230 231 230 227 225 221 219 217 215 215 214 212 210 209 208 208 207 207 207 208 209 210 210 211 212 212 213 212 211 212 211 210 210 209 206 205 203 202 202 202 202 205 212 222 232 240 245 247 247 248 248 248 247 248 249 252 253 253 252 251 256 263 267 266 266 266 266 268 269 266 262 258 256 254 254 256 260 262 263 265 265 270 281 291
238 237 237 234 230 227 223 220 218 216 215 214 212 211 209 208 206 205 206 207 208 208 208 208 209 210 211 212 211 212 213 209 207 209 211 209 207 205 203 203 203 204 208 217 226 236 243 247 246 245 246 245 245 246 247 248 251 254 254 252 255 263 271 272 270 271 272 273 276 276 272 267 262 259 257 256 256 258 261 263 265 267 270 276 283
247 244 241 236 232 229 225 222 220 218 217 214 211 210 209 207 205 204 205 206 206 206 205 206 207 208 209 211 211 212 212 210 208 210 212 211 210 208 207 207 206 207 212 223 233 241 246 247 246 245 244 244 245 246 246 247 249 252 255 257 263 271 275 273 273 275 276 277 279 277 271 267 264 263 263 262 260 261 262 263 264 267 267 269 276
252 246 241 237 232 228 225 223 221 218 216 212 209 208 208 207 206 205 203 203 202 203 202 202 203 205 207 210 210 210 212 213 212 212 213 213 212 212 211 209 208 210 219 229 238 244 247 248 248 247 245 244 247 249 249 248 247 249 256 263 267 270 270 272 275 275 273 271 270 267 262 258 257 258 258 261 262 262 261 262 263 264 265 266 274
253 246 240 235 230 226 224 221 218 215 213 210 208 206 203 203 203 202 201 199 198 198 198 198 198 198 200 203 207 209 211 212 211 210 209 211 213 213 213 212 213 220 230 237 242 245 247 248 248 248 247 247 247 247 248 248 247 248 253 257 257 256 257 262 266 266 264 262 257 254 253 251 251 252 255 259 262 262 261 263 263 261 261 267 277
247 241 236 230 227 223 220 217 214 212 210 207 204 200 197 197 197 197 197 196 194 193 193 192 191 190 190 193 198 203 206 208 209 210 210 212 213 214 214 216 222 231 238 242 243 244 244 246 247 247 246 245 244 245 246 246 246 245 243 241 242 244 246 251 258 261 259 256 251 250 251 251 252 255 259 265 267 266 265 263 261 258 260 269 281
235 232 228 223 220 216 213 210 209 207 205 202 198 194 192 191 191 193 193 193 191 189 188 188 187 186 186 188 192 197 201 203 204 206 209 212 213 214 217 221 228 235 239 240 240 240 241 242 243 242 241 239 239 242 242 238 234 235 236 238 240 243 246 250 256 260 261 258 255 255 256 258 260 264 268 271 269 267 264 260 257 257 264 275 283
227 223 219 216 212 207 202 199 199 200 200 199 197 195 193 191 189 189 189 189 190 187 185 185 185 186 189 192 193 195 197 200 203 205 208 211 214 217 220 224 228 232 235 236 236 235 234 234 233 232 232 234 235 236 236 234 232 232 234 236 237 240 244 248 253 258 261 262 261 262 264 267 269 271 271 270 266 264 262 259 257 261 270 281 285
218 213 210 206 202 199 194 190 189 190 191 193 193 193 193 191 187 185 185 186 186 185 185 186 188 190 192 194 196 198 201 205 208 211 213 215 218 220 221 222 223 223 224 227 227 225 224 225 227 229 229 232 235 235 235 235 233 231 230 232 235 239 242 246 251 256 260 264 266 267 269 271 271 271 271 268 265 265 264 261 261 267 277 285 286
211 206 203 198 194 192 189 186 184 183 184 187 189 190 192 192 190 191 193 192 189 188 189 190 192 193 193 191 192 196 204 210 214 217 218 219 220 220 218 217 216 214 214 216 216 216 216 215 216 219 219 218 218 218 222 225 226 228 231 234 237 239 240 242 245 249 255 262 267 271 273 273 273 274 274 270 268 269 268 264 264 272 280 283 282
205 200 195 191 187 185 184 183 181 178 178 180 184 188 192 194 195 197 199 200 200 198 196 197 199 199 197 196 194 195 203 215 221 222 221 221 221 221 219 217 215 213 212 212 211 209 207 206 207 208 208 208 208 208 213 218 222 229 236 237 235 234 235 237 240 244 250 257 264 271 277 278 277 275 272 271 272 273 270 267 268 275 279 277 277
194 191 188 184 182 180 177 177 178 176 174 173 173 176 185 194 199 201 202 205 208 208 209 210 210 208 206 207 209 209 215 223 224 221 220 220 221 222 222 221 218 216 212 210 210 209 208 208 209 211 211 212 212 211 213 217 221 228 232 231 229 230 232 236 240 244 250 255 261 269 273 272 272 271 270 271 273 273 270 270 272 275 276 275 277
186 185 185 182 180 178 175 174 174 173 173 173 171 167 165 175 192 203 206 206 207 209 213 217 219 218 216 214 214 216 223 229 226 220 219 217 216 218 219 218 217 214 209 205 206 208 208 207 208 209 211 211 211 212 214 216 219 222 222 222 223 227 231 237 242 246 251 256 261 264 264 264 266 267 268 269 270 271 271 271 271 271 271 273 276
187 184 183 181 180 179 176 174 172 171 172 173 172 168 162 154 156 174 194 201 202 205 210 213 216 217 216 213 209 208 213 219 218 214 210 205 205 208 208 207 208 205 199 198 201 203 204 204 204 205 206 207 208 209 210 210 212 214 214 215 218 225 232 239 245 249 252 255 258 259 258 260 262 264 266 267 267 268 269 267 267 268 270 272 275
191 186 182 180 179 178 176 175 173 173 173 173 172 171 167 158 149 148 161 180 192 198 203 205 205 204 204 207 208 208 209 210 206 200 195 192 191 193 193 195 196 189 185 191 198 200 201 203 204 203 203 204 204 204 205 207 208 210 213 216 220 227 235 240 243 247 251 254 257 258 258 260 260 261 263 264 264 264 265 266 267 268 269 271 275
194 189 185 181 179 177 177 176 175 174 174 174 173 173 171 168 163 159 156 159 167 178 188 195 199 198 197 199 203 205 205 201 197 192 187 184 183 183 180 178 179 181 186 194 199 199 198 200 201 200 201 201 200 200 203 206 207 209 214 220 226 232 235 233 233 241 251 259 262 263 263 264 264 263 264 265 265 264 265 266 267 267 266 270 276
193 189 187 184 180 178 179 179 177 175 175 176 177 178 177 177 176 172 168 164 163 163 167 175 185 193 194 194 196 198 197 194 190 187 185 181 178 174 169 167 171 180 190 197 198 196 195 195 195 196 197 198 198 202 204 206 208 212 217 223 228 232 232 232 235 242 250 257 262 265 267 268 268 268 268 267 265 264 264 264 263 263 267 273 279
191 187 185 184 183 182 182 182 181 180 178 178 179 179 179 180 180 178 175 172 168 164 163 165 169 179 187 190 189 189 189 187 183 180 179 177 174 172 172 174 178 183 189 193 195 195 196 196 195 195 197 199 201 206 208 209 212 217 223 227 227 226 227 232 240 247 251 255 260 264 266 267 269 269 267 264 263 263 263 263 261 262 269 277 281
189 185 183 183 184 183 182 181 181 181 178 176 176 176 177 181 182 180 177 176 173 169 167 165 163 164 171 178 178 176 174 174 172 172 172 172 175 180 183 183 184 186 189 192 194 194 196 199 200 200 202 207 210 211 213 214 216 218 220 221 222 224 230 240 249 253 254 254 257 260 264 266 268 267 263 261 262 261 259 259 261 267 274 280 281
190 186 184 184 184 182 179 178 178 178 177 175 175 175 176 179 181 181 180 179 177 174 171 170 169 169 169 170 170 166 162 160 162 168 173 177 183 189 192 190 190 191 192 194 197 198 199 203 205 207 210 214 215 214 213 213 214 215 216 219 225 234 241 246 248 249 249 251 253 258 263 264 264 263 260 259 259 257 256 259 266 273 277 277 276
188 185 183 183 182 180 178 176 175 175 175 175 176 176 176 177 178 180 180 179 178 177 175 175 177 178 175 173 170 167 165 166 170 173 176 181 188 193 195 194 195 197 197 197 199 201 202 204 207 209 210 210 209 209 209 210 213 219 223 227 233 239 241 242 243 246 251 255 259 262 263 264 263 262 259 256 255 256 260 266 271 274 274 274 274
182 178 179 180 179 179 178 175 174 175 176 178 179 180 181 181 181 182 182 181 181 182 181 181 185 186 184 181 178 175 175 177 180 181 181 184 189 194 196 196 196 198 199 199 199 202 204 204 204 205 206 207 208 211 215 219 222 227 230 233 237 240 242 245 248 252 256 259 262 262 261 261 260 257 254 254 258 261 266 270 272 273 273 274 276
178 174 175 178 178 177 175 175 178 180 181 183 184 186 187 189 188 188 187 186 186 187 187 188 190 191 190 189 186 184 184 185 186 187 188 189 191 195 197 198 198 199 200 200 202 204 207 208 209 211 213 217 221 224 226 229 232 234 237 240 243 246 248 251 253 256 257 257 257 257 256 255 254 254 256 258 261 262 264 267 270 272 273 273 273
174 172 172 175 176 176 176 179 183 185 187 189 191 192 193 194 193 192 192 192 190 189 188 189 191 193 193 190 188 188 191 191 190 191 193 194 196 198 200 202 204 206 208 209 210 211 213 216 220 223 226 228 231 231 232 235 238 241 244 246 248 250 252 253 253 253 253 252 252 252 253 253 253 255 258 259 259 259 261 264 267 269 270 271 271
171 170 171 173 175 177 181 184 186 188 191 193 196 197 197 196 195 195 194 193 192 191 189 188 188 190 190 187 185 189 194 194 194 196 197 199 201 203 205 208 211 213 216 218 219 220 222 225 228 230 231 233 235 237 239 243 246 248 249 250 250 251 250 250 249 249 249 251 252 252 252 253 254 255 257 257 257 258 259 260 262 264 266 267 269
171 171 172 174 177 181 186 189 191 192 194 194 195 197 197 195 194 194 194 193 193 193 192 191 189 187 185 184 186 192 197 196 197 200 203 203 205 207 209 212 214 215 217 220 222 223 225 227 229 232 234 236 239 243 246 248 249 250 250 249 248 249 249 249 249 250 250 251 252 252 251 252 252 253 254 255 255 256 258 258 259 261 262 263 264
179 181 181 182 184 187 190 193 195 195 195 194 194 195 195 196 196 196 195 195 194 193 195 196 194 191 189 187 189 195 200 200 200 202 204 204 206 209 211 214 217 219 222 225 227 229 231 232 234 236 238 240 243 245 247 248 249 249 249 249 249 249 250 250 249 249 249 250 251 251 252 252 251 252 253 254 253 253 255 257 258 258 259 261 262
191 191 191 191 192 192 193 196 198 197 196 196 195 194 194 196 197 197 197 197 196 196 197 198 197 195 194 192 192 196 200 202 202 203 205 205 207 210 214 218 221 225 228 229 231 233 235 235 236 238 240 241 244 244 246 247 248 247 247 248 248 248 249 247 246 246 247 248 250 250 250 250 251 252 253 253 251 251 252 253 254 255 258 260 263
198 199 198 197 195 194 194 195 195 194 194 195 194 193 192 193 194 196 196 197 197 197 199 199 198 196 195 194 195 197 200 202 204 205 206 209 211 214 219 223 226 229 231 231 232 233 234 234 236 238 240 241 243 244 244 245 246 245 246 246 246 247 248 247 247 247 246 247 248 249 249 251 252 251 252 251 249 249 251 252 253 256 258 259 261
200 198 196 194 192 190 190 190 189 189 190 190 190 191 191 191 191 193 194 195 196 197 199 199 197 195 195 196 197 199 201 204 206 206 207 210 215 220 223 227 230 232 234 235 234 235 236 238 240 241 242 243 244 244 244 244 245 244 245 245 245 245 246 247 247 247 246 246 248 248 249 251 252 250 249 248 247 247 250 251 252 255 258 259 261
196 194 191 190 189 188 189 189 188 188 188 187 186 186 187 188 189 190 191 193 194 196 198 199 198 197 198 200 201 203 205 207 209 210 211 215 220 225 228 232 234 236 238 239 239 240 242 243 244 244 244 244 245 245 245 246 246 245 245 244 243 243 244 244 246 247 246 247 249 249 249 250 252 250 249 249 248 249 250 251 252 254 255 256 259
188 187 186 185 185 186 187 186 185 186 187 187 185 184 184 186 188 189 190 192 193 195 198 200 199 200 203 205 205 208 210 213 216 221 224 227 231 234 236 238 240 241 243 245 245 246 246 246 245 246 245 246 247 248 248 249 249 248 246 245 244 244 244 245 246 249 249 249 251 251 250 250 251 250 249 248 247 247 249 250 252 254 255 255 258
179 179 180 182 181 181 183 183 183 185 187 186 186 187 187 186 188 191 192 194 195 196 198 200 201 203 207 211 213 216 219 223 229 233 236 238 241 241 242 244 245 248 250 252 252 252 251 249 248 249 248 249 250 251 251 251 251 248 247 247 246 247 249 251 252 253 253 252 252 252 251 251 251 251 251 249 248 247 249 250 250 252 254 256 258